Simultaneous Nadir Overpasses (SNOs) Predictions

Prediction of SNOs between AQUA and GOES-15 Satellite Orbit:

Table of predicted SNOs for the next 14.0 days since TLE Epoch: 8/13/2022
Index Date Time (AQUA) AQUA Lat,Lon GOES-15 Lat,Lon Distance(km) Time Diff (sec)
1 08/13/2022 10:25:21 1.07,-131.23 0.40,-128.08 358.99 80
2 08/15/2022 10:12:42 0.39,-128.16 0.40,-128.08 8.75 80
3 08/17/2022 10:00:02 -0.24,-125.08 0.39,-128.08 341.88 80
4 08/17/2022 22:21:19 -0.86,-130.23 -0.40,-128.06 247.40 80
5 08/19/2022 22:08:39 -0.22,-127.15 -0.40,-128.06 102.60 80
6 08/20/2022 10:29:46 1.30,-132.27 0.40,-128.09 476.05 80
7 08/21/2022 21:55:59 0.44,-124.07 -0.39,-128.05 452.06 80
8 08/22/2022 10:17:07 0.64,-129.19 0.39,-128.08 127.02 80
9 08/24/2022 10:04:27 -0.03,-126.11 0.38,-128.06 221.62 80
10 08/24/2022 22:25:43 -1.05,-131.27 -0.39,-128.02 369.69 80
11 08/26/2022 22:13:02 -0.42,-128.19 -0.38,-128.00 20.90 80
